Weather History for KAEX - February, 2013

Change the Weather History Date:

Friday, February 1, 2013

  Actual Average Record
Temperature  
Mean Temperature 49 °F 49 °F  
Max Temperature 58 °F 60 °F 82 °F (1907)
Min Temperature 39 °F 39 °F 12 °F (1951)
Degree Days  
Heating Degree Days 16 16  
Month to date heating degree days 16 16  
Since 1 July heating degree days 1124 1307  
Moisture  
Dew Point 33 °F    
Average Humidity 56    
Maximum Humidity 82    
Minimum Humidity 30    
Precipitation  
Precipitation 0.00 in 0.16 in 2.81 in (1952)
Month to date precipitation 0.00 0.16  
Year to date precipitation 11.05 5.38  
Snow  
Snow 0.00 in - 0.80 in (1951)
Month to date snowfall 0.0  
Since 1 July snowfall 0.0  
Snow Depth 0.00 in    
Sea Level Pressure  
Sea Level Pressure 30.36 in    
Wind  
Wind Speed 5 mph (ENE)    
Max Wind Speed 15 mph    
Max Gust Speed 22 mph    
Visibility 10 miles    
Events      
T = Trace of Precipitation, MM = Missing Value Source: NWS Daily Summary

Daily Weather History Graph

Daily Weather History Graph

Search for Another Location

Airport or City:

Trip Planner

Search our weather history database for the weather conditions in past years. The results will help you decide how hot, cold, wet, or windy it might be!

Date:

Astronomy

Feb. 01, 2013 Rise Set
Actual Time 7:02 AM CST 5:45 PM CST
Civil Twilight 6:37 AM CST 6:11 PM CST
Nautical Twilight 6:08 AM CST 6:40 PM CST
Astronomical Twilight 5:39 AM CST 7:08 PM CST
Moon 11:25 PM CST (2/1) 10:01 AM CST (2/1)
Length of Visible Light 11h 33m
Length of Day
10h 43m
Waning Gibbous, 70% of the Moon is Illuminated
Feb 1
Waning Gibbous
Feb 3
Last Quarter
Feb 10
New
Feb 17
First Quarter
Feb 25
Full

Hourly Weather History & Observations

Time (CST) Temp. Windchill Dew Point Humidity Pressure Visibility Wind Dir Wind Speed Gust Speed Precip Events Conditions
12:53 AM 48.9 °F - 36.0 °F 61% 30.31 in 10.0 mi SW 5.8 mph - N/A   Clear
1:53 AM 48.9 °F - 36.0 °F 61% 30.31 in 10.0 mi SW 8.1 mph - N/A   Clear
2:53 AM 48.0 °F - 37.0 °F 66% 30.32 in 10.0 mi Calm Calm - N/A   Clear
3:53 AM 43.0 °F 38.8 °F 37.0 °F 80% 30.33 in 10.0 mi North 6.9 mph - N/A   Clear
4:53 AM 45.0 °F 43.5 °F 37.0 °F 74% 30.36 in 10.0 mi North 3.5 mph - N/A   Clear
5:53 AM 44.1 °F - 36.0 °F 73% 30.37 in 10.0 mi Calm Calm - N/A   Clear
6:53 AM 44.1 °F - 36.0 °F 73% 30.39 in 10.0 mi Calm Calm - N/A   Clear
7:53 AM 44.1 °F 39.0 °F 35.1 °F 71% 30.40 in 10.0 mi NE 9.2 mph - N/A   Clear
8:53 AM 46.0 °F 41.4 °F 35.1 °F 66% 30.43 in 10.0 mi NE 9.2 mph 17.3 mph N/A   Clear
9:00 AM 46.4 °F 41.5 °F 35.6 °F 66% 30.42 in 10.0 mi NE 10.4 mph 16.1 mph N/A   Partly Cloudy
9:53 AM 48.9 °F - 35.1 °F 59% 30.43 in 10.0 mi ENE 9.2 mph - N/A   Clear
10:53 AM 51.1 °F - 34.0 °F 52% 30.43 in 10.0 mi East 4.6 mph - N/A   Clear
11:53 AM 54.0 °F - 33.1 °F 45% 30.41 in 10.0 mi NE 8.1 mph - N/A   Clear
12:53 PM 55.9 °F - 28.0 °F 34% 30.38 in 10.0 mi East 6.9 mph - N/A   Clear
1:53 PM 57.0 °F - 27.0 °F 32% 30.37 in 10.0 mi SSE 8.1 mph - N/A   Clear
2:53 PM 57.9 °F - 30.0 °F 35% 30.35 in 10.0 mi SSE 8.1 mph - N/A   Clear
3:53 PM 57.9 °F - 27.0 °F 31% 30.33 in 10.0 mi East 5.8 mph - N/A   Clear
4:53 PM 55.9 °F - 28.0 °F 34% 30.33 in 10.0 mi ENE 6.9 mph - N/A   Overcast
5:53 PM 52.0 °F - 28.9 °F 41% 30.32 in 10.0 mi East 5.8 mph - N/A   Partly Cloudy
6:53 PM 50.0 °F - 28.9 °F 44% 30.32 in 10.0 mi ENE 6.9 mph - N/A   Clear
7:53 PM 48.0 °F - 30.0 °F 50% 30.32 in 10.0 mi East 5.8 mph - N/A   Clear
8:53 PM 46.0 °F 44.8 °F 28.9 °F 51% 30.32 in 10.0 mi East 3.5 mph - N/A   Clear
9:53 PM 45.0 °F 42.6 °F 28.9 °F 53% 30.32 in 10.0 mi East 4.6 mph - N/A   Clear
10:53 PM 42.1 °F 40.2 °F 33.1 °F 70% 30.33 in 10.0 mi Variable 3.5 mph - N/A   Clear
11:53 PM 39.0 °F - 30.9 °F 73% 30.33 in 10.0 mi Calm Calm - N/A   Clear